Wind_Speed
3 3 3 2 0 1 3 5 5 5 5 4 4 6 8 9 9 9 9 10 10 10 9 8 7 7 6 6 7 7 7 7 8 9 10 11 12 12 13 14 13 12 11 10 10 10 11 10 9 8 7 7 6 6 6 7 7 8 9 9 8 7 6 6 5 5 5 5 4 4 4 5 5 5 6 6 6 6 7 7 8 10 11 11 11
2 2 2 1 1 1 3 5 6 5 5 4 4 5 7 8 9 9 9 9 10 10 10 8 8 8 7 6 6 6 6 6 7 8 10 11 12 12 13 13 12 11 10 10 10 10 11 10 9 9 8 7 7 7 7 7 7 7 8 8 7 6 5 5 5 4 4 4 5 5 5 5 6 6 6 6 6 6 8 8 9 11 11 12 13
1 1 1 1 2 2 4 5 6 6 6 6 5 5 6 7 8 8 9 9 10 10 10 10 9 8 8 8 8 7 6 6 6 7 8 10 11 11 12 12 12 11 10 11 11 11 11 10 10 9 9 8 8 8 7 7 7 6 7 7 6 5 5 4 4 4 4 5 6 6 6 6 7 7 7 7 7 7 8 9 10 11 12 13 14
4 4 3 2 2 2 4 5 6 6 6 6 5 5 6 7 7 7 8 9 10 10 11 10 9 8 7 8 9 8 7 6 5 6 7 8 10 10 10 11 11 11 11 12 11 11 11 11 11 10 9 9 8 8 8 8 7 7 7 7 6 6 5 5 5 4 5 6 6 6 6 6 6 6 7 8 9 9 10 10 11 11 13 14 15
7 6 6 4 1 2 4 5 6 6 7 6 6 6 6 7 8 8 8 9 10 11 11 10 8 7 7 8 8 7 6 5 4 5 6 7 9 10 11 12 12 12 12 12 11 11 11 11 11 10 10 9 8 8 8 8 8 7 7 8 7 7 6 6 6 5 5 6 6 6 7 7 7 7 7 8 10 11 11 11 12 12 13 14 15
9 8 7 5 3 3 5 5 5 7 8 7 7 7 7 7 8 9 9 10 11 11 11 10 8 7 7 8 7 6 5 4 4 5 7 9 11 12 13 13 14 13 13 12 11 11 12 11 11 10 9 8 7 7 8 9 9 8 8 8 8 8 7 7 6 6 7 7 7 8 9 9 9 9 8 8 8 11 12 13 13 14 14 14 15
10 10 9 6 5 5 5 5 4 6 9 9 8 8 8 8 9 10 10 10 11 12 12 10 9 8 8 8 8 6 6 6 6 7 9 11 13 14 14 14 13 13 13 12 11 11 11 11 10 9 9 8 8 7 8 8 8 8 8 8 8 8 8 7 7 7 8 8 9 9 10 10 10 10 10 8 6 7 11 13 14 15 15 15 14
12 11 10 8 6 6 6 5 4 6 9 10 9 9 8 8 9 10 11 11 11 12 12 11 10 9 8 8 8 7 7 8 9 10 11 12 14 15 15 14 13 13 13 13 12 12 11 11 10 9 9 8 8 8 8 8 8 8 8 8 7 7 7 8 8 8 9 9 10 10 11 11 11 11 10 10 8 6 7 10 12 14 15 16 15
14 13 12 10 8 6 6 7 7 7 9 11 11 10 10 9 9 9 10 11 12 11 11 11 11 10 9 9 8 8 9 9 9 10 11 12 14 15 16 15 14 13 13 13 13 12 12 11 11 10 9 9 9 9 8 9 9 8 8 7 7 7 7 8 9 9 10 11 11 11 11 11 11 11 11 11 11 9 8 8 10 9 10 14 15
16 15 14 12 11 9 8 9 10 9 9 11 13 13 11 11 10 9 10 10 11 11 10 11 12 11 10 9 9 10 9 8 8 9 10 11 13 14 15 15 14 14 14 13 13 12 12 11 10 10 11 10 10 9 9 9 9 9 8 8 7 7 9 9 10 10 11 11 11 11 10 10 11 11 12 12 12 11 10 10 10 8 7 10 14
16 16 16 14 13 12 11 10 11 11 12 13 14 14 13 12 11 10 10 10 10 10 10 11 12 12 11 10 10 10 8 7 7 8 9 10 11 12 13 14 14 14 13 13 12 12 12 11 11 11 11 11 11 10 10 10 10 9 9 9 9 9 10 10 10 11 11 11 12 11 10 10 10 10 11 11 11 12 11 10 10 9 8 10 12
15 16 17 17 16 16 14 12 12 13 13 14 14 15 15 13 12 11 11 11 10 10 10 11 12 13 12 12 11 10 9 8 8 8 9 10 10 11 12 13 13 13 13 12 12 12 12 12 12 12 12 11 11 11 11 11 10 10 10 10 10 11 10 11 11 11 11 11 12 11 11 11 11 11 11 11 12 12 12 11 10 10 8 9 11
15 16 17 17 18 17 16 14 13 13 13 14 15 16 16 15 13 13 12 11 11 10 10 11 13 14 13 13 12 11 10 9 9 10 10 10 10 11 12 12 13 13 13 12 12 12 13 13 12 12 12 11 11 11 11 11 11 10 10 11 11 11 11 11 11 12 12 12 12 12 11 11 11 11 11 12 12 12 11 11 11 10 9 9 10
13 15 17 17 18 18 17 16 15 14 13 14 16 16 17 16 14 13 13 12 11 11 11 11 12 14 14 14 14 13 11 11 11 11 11 11 11 11 12 12 12 12 13 13 14 13 13 13 13 12 12 12 12 12 11 11 11 11 11 11 12 12 12 12 12 12 12 12 12 12 11 11 11 11 11 11 12 12 12 12 11 11 10 10 10
10 14 17 17 17 17 18 18 16 15 14 14 16 17 17 17 16 14 13 13 12 12 12 12 13 14 15 15 15 14 13 12 12 12 12 11 11 11 12 11 12 12 13 14 14 13 13 13 12 12 12 12 12 12 11 11 11 11 12 12 13 13 13 13 13 13 13 12 12 11 11 11 12 12 11 11 12 12 12 12 12 12 10 9 9
9 11 15 17 17 18 19 19 18 17 16 15 16 17 17 17 16 15 14 14 13 12 12 13 13 14 15 15 16 16 15 14 14 13 12 12 11 11 11 11 12 12 13 13 13 12 12 12 12 12 12 12 12 12 12 12 12 12 13 13 13 13 13 13 12 12 12 12 12 11 11 11 12 12 12 12 12 12 12 12 12 12 11 9 7
9 9 11 15 18 18 19 20 21 22 20 17 16 17 17 16 16 16 16 15 14 14 13 14 14 15 15 16 17 16 16 15 15 14 14 13 11 11 11 11 11 12 12 12 12 12 12 12 11 12 12 12 12 12 13 13 13 13 13 13 13 13 13 12 12 11 12 12 12 12 12 12 13 13 13 13 13 13 12 12 11 11 11 10 8
8 9 10 13 16 19 21 23 24 24 23 20 18 18 18 17 16 16 17 16 15 15 14 15 15 15 16 16 17 17 16 16 16 16 15 14 12 12 12 12 11 12 12 12 11 11 11 11 11 11 11 11 12 12 13 13 12 12 13 13 13 14 13 13 13 13 12 13 13 13 13 13 14 14 13 13 13 12 11 11 11 11 10 10 10
8 9 9 11 14 18 20 21 21 22 23 21 19 19 20 19 18 16 16 16 16 17 16 16 16 16 16 16 17 17 18 17 17 17 16 15 14 13 13 13 12 12 12 12 12 11 11 11 11 11 12 12 12 12 12 12 11 11 12 13 14 14 14 14 14 14 14 14 14 15 14 14 14 13 13 12 12 11 10 10 10 11 11 10 10
9 8 9 10 12 14 16 17 18 21 23 21 19 19 20 21 21 19 17 17 17 18 18 18 17 17 17 17 17 18 19 19 19 18 17 16 15 14 14 14 14 13 13 13 12 12 12 12 12 12 12 12 12 11 12 12 11 11 12 13 14 14 14 14 15 15 15 15 15 16 15 15 13 12 12 12 11 10 10 10 10 11 11 11 11
10 10 10 10 12 13 14 16 18 20 23 24 22 21 21 22 22 20 19 18 18 18 18 18 19 18 18 18 17 18 19 20 20 20 19 18 17 16 15 15 15 14 14 13 13 13 13 13 13 13 13 12 12 11 12 11 11 12 13 14 14 15 15 15 16 17 17 16 16 15 15 14 13 12 12 12 11 11 11 11 11 11 12 13 13
9 10 10 10 12 13 14 16 18 19 22 25 25 23 23 24 23 22 21 21 20 20 19 19 19 19 19 19 18 18 19 21 22 22 21 19 18 17 17 16 16 15 15 14 14 14 15 14 14 13 13 12 12 12 12 12 12 13 14 15 15 16 16 17 17 18 18 17 16 15 15 15 13 12 12 12 11 11 12 12 12 13 13 14 14
7 9 9 10 11 12 13 14 18 20 21 24 26 26 24 23 24 24 23 22 21 20 20 19 20 20 20 20 20 19 19 21 24 24 23 21 20 19 18 17 16 16 16 16 16 16 16 15 14 13 12 13 13 13 14 14 14 14 15 16 17 17 17 17 17 17 18 18 16 15 15 15 13 12 12 12 11 12 13 13 13 13 14 14 14
6 8 9 10 11 12 12 12 15 19 22 24 26 27 25 24 25 25 25 23 22 21 21 21 21 21 21 22 21 20 20 21 24 25 24 23 21 20 19 18 18 18 17 17 17 17 16 15 14 14 14 14 15 15 16 16 16 16 16 17 17 18 18 18 17 18 19 20 18 17 16 15 14 12 11 12 12 12 13 13 13 13 13 13 14
6 7 8 10 11 11 11 12 13 15 20 25 27 27 27 26 26 25 25 24 23 23 22 22 22 22 22 23 23 22 21 21 22 24 25 24 23 22 21 20 19 19 19 18 18 18 17 15 15 15 16 16 17 18 18 18 18 18 18 18 18 19 19 18 19 20 21 20 18 17 17 18 16 13 11 11 13 13 14 13 13 12 13 13 14
7 8 9 10 10 10 10 11 12 13 16 22 26 28 28 28 27 26 25 25 25 25 24 23 22 23 23 24 24 24 23 22 22 23 24 25 24 23 22 21 21 20 20 20 19 18 17 16 16 17 18 18 19 19 19 20 20 19 19 19 19 20 20 20 21 22 20 19 18 18 17 18 18 16 13 12 13 14 14 14 14 13 13 14 15
8 9 10 11 11 11 11 11 11 13 14 17 22 26 28 28 28 27 26 26 27 27 25 24 23 23 24 25 25 25 24 23 22 23 24 25 25 25 24 22 22 21 21 21 21 20 19 18 18 19 19 20 20 20 22 23 22 19 18 18 18 19 19 20 22 21 19 18 19 19 18 17 17 16 15 15 15 16 16 15 15 15 15 15 16
9 10 11 11 12 12 13 12 12 12 14 16 19 24 27 28 28 28 28 27 28 29 27 25 25 25 25 25 26 26 26 25 24 24 24 25 25 25 25 24 23 23 22 22 22 21 20 20 20 20 20 21 21 22 24 24 21 19 18 18 18 18 18 19 20 19 18 19 20 20 19 18 17 16 16 17 18 18 17 17 16 16 17 17 18
11 11 11 11 11 12 12 13 12 12 13 15 18 22 26 28 29 30 30 29 29 30 30 29 28 28 27 26 26 27 28 28 27 26 26 26 26 26 26 26 25 24 24 24 23 23 22 22 21 21 21 21 22 23 24 23 21 19 19 19 18 18 17 17 17 16 17 18 19 19 19 19 19 18 17 18 19 20 19 19 19 18 18 19 19
12 12 12 11 10 10 11 12 12 12 12 13 16 19 23 27 29 30 31 31 31 31 32 32 32 30 29 27 27 28 29 29 29 29 28 27 27 27 27 27 27 26 26 25 25 24 24 23 23 22 22 22 23 23 22 21 21 20 19 19 19 19 18 16 14 15 15 16 17 18 19 19 19 19 19 20 20 21 21 21 21 20 20 20 20
13 13 12 11 10 10 11 12 11 11 11 12 14 17 20 24 28 29 30 31 33 34 34 34 34 33 32 30 29 29 29 30 31 30 30 29 29 28 29 28 28 28 28 27 26 25 25 25 24 23 23 23 24 23 21 21 22 22 20 19 19 19 19 17 14 13 15 16 17 18 18 18 19 20 20 21 20 20 22 23 23 22 22 21 21
15 13 13 12 11 11 12 13 12 11 10 10 12 14 18 22 26 29 30 31 33 35 36 36 35 35 35 34 32 32 31 31 31 31 31 31 30 30 30 29 29 29 29 28 28 27 26 26 25 24 24 24 24 22 21 22 23 22 20 19 19 19 20 18 13 13 15 16 17 18 18 19 20 21 21 21 21 23 23 24 24 24 23 23 23
15 14 13 13 13 13 13 14 13 12 10 9 10 12 14 18 22 27 30 32 32 33 35 38 37 36 37 36 35 34 34 33 32 32 32 32 32 32 31 30 30 29 29 29 29 28 28 27 26 25 25 25 23 22 22 22 23 22 20 19 19 19 20 18 14 14 17 18 19 21 22 22 23 24 23 22 24 26 26 26 26 25 25 25 25
16 15 14 14 14 15 15 15 15 14 11 9 9 9 11 14 17 21 27 31 32 32 34 37 40 39 39 38 38 37 36 35 33 32 32 33 33 33 32 31 31 30 30 30 29 29 29 28 27 26 25 24 22 22 23 23 23 22 21 20 19 19 19 18 18 18 20 21 22 24 25 25 25 25 24 24 26 27 27 28 27 26 26 27 26
16 15 15 14 15 15 16 16 15 15 13 11 9 8 8 10 12 15 19 25 31 33 33 35 39 42 41 39 40 39 37 36 35 35 34 34 34 34 33 33 32 31 30 29 29 29 29 29 27 26 25 25 23 23 23 23 23 21 21 21 21 21 21 21 21 22 22 23 25 26 27 27 26 26 26 26 26 27 27 28 27 25 25 26 25
15 15 15 15 15 15 16 15 14 14 14 13 12 10 9 9 11 12 14 18 25 30 33 34 37 42 43 41 40 40 39 38 38 37 36 35 35 34 33 33 32 32 31 30 30 30 30 29 28 27 26 25 25 24 24 23 22 22 22 23 23 23 23 23 24 24 24 25 26 27 28 29 28 28 28 28 28 28 29 29 28 28 28 26 24
14 14 14 14 14 15 15 15 14 13 14 15 15 13 12 11 12 13 14 15 18 23 29 32 35 39 43 44 42 40 40 39 39 38 37 36 35 33 33 33 33 33 32 31 30 30 30 30 29 28 27 26 26 26 25 24 23 24 25 25 24 25 25 24 24 25 26 27 28 28 30 31 32 31 29 29 30 31 30 30 31 33 31 26 22
13 13 12 12 12 13 14 14 13 13 14 15 16 15 15 14 14 15 16 16 17 18 22 27 32 36 40 44 44 43 42 41 40 38 37 36 35 34 34 33 33 33 33 32 31 30 30 30 29 28 27 27 27 27 25 24 25 25 26 26 25 25 24 24 25 25 26 28 29 28 30 32 32 32 31 30 30 29 27 27 31 32 27 20 18
13 12 11 10 11 11 12 13 13 13 14 15 15 16 16 16 16 17 18 18 18 19 20 23 28 32 37 41 44 44 43 42 40 38 37 37 36 36 36 35 34 33 33 33 32 32 31 30 30 29 28 28 28 27 26 25 25 26 26 25 25 25 26 26 26 26 28 29 29 29 30 31 32 32 32 31 30 29 27 27 28 26 20 16 17
12 11 10 9 9 10 10 10 12 13 14 14 15 15 16 17 18 19 19 20 20 20 21 22 25 29 34 39 43 45 45 43 41 40 39 38 38 38 37 37 36 35 34 34 34 33 31 31 31 31 31 30 29 28 27 26 25 25 25 25 25 26 26 26 27 28 29 29 28 28 28 29 30 31 31 32 31 28 24 22 19 16 12 12 14
12 12 10 9 9 9 9 9 11 12 13 14 14 15 16 17 19 20 20 21 20 21 21 22 24 27 32 37 42 44 44 44 43 43 42 41 40 40 39 39 38 37 35 34 34 34 33 33 33 33 32 30 29 28 27 25 24 24 25 25 26 26 26 26 27 28 28 28 26 23 22 24 25 24 24 25 22 15 10 8 6 6 8 10 11
12 12 10 9 9 10 10 11 11 12 13 14 15 15 16 18 19 20 21 21 20 21 22 23 23 24 28 34 40 43 44 44 45 45 45 44 43 42 41 40 40 39 37 35 35 35 34 34 34 33 31 29 29 28 26 25 24 25 25 25 25 25 25 25 25 25 25 23 20 18 18 17 14 11 8 8 7 4 3 4 5 6 7 7 8
12 12 11 10 10 10 12 13 13 13 13 14 15 16 17 17 18 20 21 21 21 22 23 24 24 23 24 28 34 41 45 46 46 46 46 45 45 44 43 42 41 40 39 37 36 36 35 35 35 33 30 28 28 27 25 24 24 24 25 24 23 23 23 23 22 20 18 16 13 12 11 7 5 4 4 4 4 4 3 3 3 3 3 5 8
12 12 11 10 10 11 12 13 14 15 14 14 14 15 16 17 19 21 22 22 22 23 24 26 28 29 28 27 30 37 44 47 48 48 46 45 45 44 43 43 42 40 40 39 39 38 37 37 35 31 26 25 25 24 23 23 23 23 22 21 21 21 20 18 16 13 12 11 9 7 6 7 7 6 4 3 1 0 2 1 1 4 7 9 11
12 12 12 11 11 12 12 13 14 15 15 14 14 15 16 18 20 21 21 21 22 23 24 26 28 29 29 28 28 32 39 44 46 47 47 46 45 45 45 44 43 42 42 41 40 38 37 37 34 30 26 23 22 23 23 22 21 20 18 17 16 14 11 9 9 9 8 7 6 6 7 7 6 4 3 3 2 1 0 3 6 9 11 12 12
12 12 12 12 12 12 13 13 13 14 14 14 14 16 17 18 19 20 20 21 21 22 22 23 23 24 25 25 26 29 33 37 39 42 45 46 45 45 45 43 42 42 42 40 39 39 37 35 33 31 27 23 21 21 20 19 17 15 13 11 9 7 6 6 7 7 6 5 5 6 6 5 4 4 3 3 2 1 3 7 10 11 12 12 13
13 13 13 12 12 13 13 13 13 13 13 14 15 17 19 19 18 18 18 18 18 18 18 18 18 19 20 21 22 25 29 31 32 34 38 42 44 45 44 42 41 41 39 38 38 38 36 33 31 29 25 22 21 18 12 11 11 9 7 6 5 6 8 9 9 8 7 7 7 6 5 5 4 4 4 4 4 5 7 10 11 12 12 13 14
14 14 13 13 12 12 13 13 13 12 13 14 15 17 17 16 15 13 12 12 13 14 15 15 14 15 17 19 20 22 25 27 27 29 32 35 39 41 41 39 38 35 34 35 36 37 37 34 31 28 23 19 20 18 12 10 11 9 9 9 8 9 9 9 9 7 6 7 7 7 6 6 6 6 7 8 9 10 11 12 12 11 12 13 14
14 14 14 13 12 12 13 12 11 11 12 13 13 13 13 12 10 8 6 7 8 9 11 14 14 13 13 15 15 18 21 23 24 25 27 32 37 40 38 35 32 31 31 31 30 31 30 24 20 21 20 16 16 17 14 12 13 12 12 11 9 8 7 7 6 7 8 9 9 8 8 9 9 9 10 11 11 11 11 12 12 12 13 14 15
13 13 13 13 12 12 12 11 9 9 10 10 9 9 10 11 9 7 5 5 5 4 4 7 9 7 6 5 6 8 14 21 25 24 23 26 31 36 37 34 31 30 29 25 19 17 16 14 14 18 19 17 17 17 15 14 12 11 10 8 7 6 6 7 8 10 11 11 11 11 10 10 10 10 11 11 10 10 11 12 13 14 15 16 17
12 12 12 12 11 12 12 10 7 6 6 5 5 7 8 8 6 4 2 1 2 2 3 5 5 5 7 8 8 6 1 6 12 11 8 8 11 16 22 23 21 20 20 19 15 12 13 15 17 19 20 20 19 17 14 12 11 9 8 7 8 9 10 10 11 11 11 11 11 10 10 9 9 10 10 10 10 11 12 13 14 15 16 17 19
Wind_Direction
122 104 104 118 146 215 194 176 170 161 143 145 160 149 144 147 153 155 154 153 153 155 158 155 147 144 147 149 147 145 145 148 149 153 157 159 162 167 171 171 169 167 166 167 171 174 176 176 177 175 174 179 186 189 192 190 184 181 182 179 177 182 192 204 211 219 236 249 254 264 272 277 280 287 293 297 297 299 302 310 313 309 306 311 315
133 116 123 167 249 252 224 198 180 169 151 151 176 172 157 155 157 158 157 154 153 154 154 152 149 151 158 161 156 154 157 162 165 167 169 167 167 174 178 178 179 177 173 175 180 183 181 179 180 181 183 191 199 201 202 202 196 187 183 183 182 184 190 197 203 211 232 247 255 271 288 297 300 305 308 303 302 302 302 306 309 308 312 318 321
211 205 178 221 258 245 227 214 193 178 167 162 175 186 177 167 162 160 159 159 157 155 155 157 160 164 168 166 163 168 175 177 176 176 177 176 174 179 183 184 185 182 180 185 188 187 184 182 184 186 189 197 204 208 208 208 205 195 187 188 192 197 204 210 217 227 247 263 270 279 292 303 307 309 306 301 301 301 301 304 308 313 318 322 323
252 248 221 209 253 256 229 223 210 194 186 174 169 183 192 182 170 165 164 164 163 163 164 167 171 174 173 171 170 172 176 180 181 180 182 184 184 187 190 191 191 187 188 192 192 190 188 187 189 192 195 199 204 211 214 211 208 204 200 200 203 211 222 228 233 241 257 272 278 281 288 295 298 297 296 297 301 302 304 309 315 321 323 324 324
244 250 237 207 190 251 231 227 221 205 199 190 174 177 193 192 179 174 174 172 171 173 175 177 180 180 174 172 173 169 163 165 178 186 188 192 196 199 200 198 196 193 192 194 194 194 193 193 194 196 197 197 200 211 220 218 214 213 212 213 214 222 235 239 243 253 264 274 279 280 282 285 287 287 286 289 297 301 306 315 322 325 326 326 327
231 238 238 210 170 211 227 227 227 215 207 201 191 184 190 195 189 182 180 181 182 182 184 185 184 184 176 171 171 162 149 150 172 190 197 200 202 204 204 200 196 195 193 193 196 197 197 198 199 201 200 199 203 212 222 223 219 217 218 221 224 230 239 246 255 265 270 277 281 281 283 284 286 287 285 286 294 303 311 320 325 327 327 327 328
233 230 229 215 191 201 218 223 228 224 216 208 204 199 195 195 196 192 186 186 190 190 189 189 188 186 178 175 174 165 160 171 184 194 203 205 204 204 204 200 196 195 195 196 199 201 203 205 205 206 204 206 211 216 223 225 224 224 225 228 230 234 240 249 263 272 275 278 282 283 285 286 287 290 292 294 298 302 312 320 324 326 324 323 326
239 233 227 220 203 198 210 211 212 223 223 216 210 208 206 202 202 202 195 190 195 198 195 193 191 187 182 183 182 177 182 190 191 195 202 205 205 205 205 201 197 196 197 198 203 206 208 210 211 210 209 212 217 220 227 230 230 231 232 235 237 242 247 253 262 270 273 277 280 282 285 287 290 295 300 306 310 306 308 313 316 320 318 317 322
243 238 230 223 210 198 200 201 202 213 222 221 215 212 213 210 207 210 207 199 198 203 203 199 194 189 186 187 186 188 195 198 196 196 200 203 204 205 205 201 198 198 199 202 206 210 212 213 214 214 214 217 221 225 231 236 236 235 237 242 247 252 254 255 259 262 267 272 276 280 285 290 295 301 304 310 314 311 308 305 306 310 310 312 318
242 240 233 225 215 203 197 198 204 210 216 221 220 216 216 217 214 212 214 211 205 207 210 206 200 192 188 189 192 197 202 202 202 201 199 202 204 205 205 203 201 201 203 204 208 213 216 215 215 218 218 220 224 228 232 237 239 240 244 249 254 258 258 259 260 261 263 268 273 280 286 292 299 304 307 309 311 310 309 307 305 302 295 301 309
241 240 236 231 223 211 203 202 206 211 216 220 222 220 217 218 219 217 217 216 213 213 214 212 206 197 190 193 199 203 207 206 203 203 200 200 203 204 204 204 205 207 209 210 214 217 220 220 220 223 224 224 226 229 233 237 241 245 250 255 259 261 265 268 268 266 265 268 274 280 286 293 299 301 302 304 306 307 308 307 305 303 301 304 308
240 239 237 234 228 219 213 211 212 217 222 224 224 224 221 218 219 220 221 219 216 216 218 215 210 203 195 196 202 206 207 205 200 199 199 198 200 202 204 206 208 212 216 218 221 222 223 223 224 227 229 229 230 232 236 240 244 249 253 258 262 267 274 277 273 270 270 274 280 286 292 296 299 301 301 302 304 304 304 304 305 305 306 308 309
234 234 236 235 230 225 222 220 221 225 231 232 229 227 225 222 219 220 223 223 219 217 220 218 212 209 203 200 204 207 205 202 197 197 198 198 199 201 203 206 210 213 217 221 224 224 224 224 226 229 231 232 233 236 241 246 250 254 257 263 269 274 280 281 278 277 278 282 286 288 291 295 299 302 304 304 302 300 301 304 308 309 308 308 309
233 229 232 234 231 229 227 226 228 232 235 236 234 230 228 225 222 221 222 225 223 219 220 220 216 213 210 206 207 207 204 199 195 195 199 201 201 201 202 204 208 212 215 219 222 223 224 225 227 230 232 234 237 241 246 252 256 259 264 271 276 280 283 283 282 281 282 285 287 287 291 297 301 302 301 300 297 297 300 304 309 311 310 312 314
246 232 228 229 229 231 231 230 230 233 235 237 236 232 228 227 225 222 222 225 227 224 221 222 221 218 215 212 211 208 202 198 196 196 198 203 205 203 201 202 205 209 213 218 222 224 227 229 231 233 235 236 239 245 252 256 259 262 266 270 275 278 280 282 281 280 281 285 287 289 293 296 297 296 296 295 295 297 301 306 309 311 313 317 319
260 242 229 224 223 227 230 231 233 234 233 233 235 233 229 227 227 225 223 224 227 228 225 224 225 223 221 217 215 210 203 199 199 199 199 203 206 205 202 201 204 207 211 218 222 225 230 233 235 236 237 238 241 247 252 255 257 259 261 263 267 269 271 272 274 275 279 282 286 289 290 290 290 291 292 293 294 298 301 304 307 311 316 321 325
263 250 233 223 221 224 228 230 231 232 230 224 225 228 227 224 225 226 225 224 225 227 227 226 226 226 225 223 219 214 207 203 202 202 203 205 205 205 205 205 206 210 213 219 221 223 227 230 232 234 236 238 241 244 248 251 253 255 259 262 265 267 269 271 272 273 276 279 282 284 287 288 288 289 291 293 295 297 300 301 304 309 313 316 323
263 251 238 226 221 223 226 227 228 231 230 222 215 215 216 216 219 223 225 224 224 226 228 228 227 227 227 227 225 219 213 208 206 206 207 208 207 207 209 210 212 215 217 220 221 221 224 227 229 232 234 236 239 242 246 249 254 258 262 265 268 272 276 278 278 279 281 282 283 286 288 288 287 288 290 291 292 293 295 297 301 304 307 312 317
267 253 244 234 226 226 227 229 235 240 236 227 218 214 211 209 211 216 221 222 221 223 225 228 228 228 227 228 228 225 219 214 212 211 211 211 211 210 212 215 217 219 222 224 224 223 225 228 231 234 236 238 240 245 250 255 259 262 264 266 270 274 278 280 282 282 283 284 286 287 287 285 286 288 289 287 287 289 291 294 298 301 305 310 312
270 257 245 239 236 234 232 233 238 241 237 229 222 218 215 212 210 210 214 218 220 221 222 225 227 228 227 227 228 227 224 219 216 215 214 214 214 214 215 219 221 223 226 228 227 228 229 231 233 237 241 244 247 252 257 262 265 266 267 267 269 272 275 276 278 278 279 281 282 283 283 284 286 288 287 286 286 289 293 295 298 300 302 305 306
271 265 255 243 241 240 237 236 236 233 230 227 222 217 216 215 213 212 211 213 218 220 221 223 225 227 227 226 228 229 227 222 219 218 217 217 217 217 219 221 223 225 228 231 232 232 234 235 237 241 245 249 252 256 260 262 265 266 265 265 267 270 272 273 274 275 276 276 276 277 279 281 283 284 284 284 285 289 293 295 295 296 298 301 303
282 279 272 260 252 246 241 238 235 231 226 224 221 217 217 215 212 213 215 215 217 218 219 220 224 226 227 226 227 229 229 225 221 219 219 219 219 220 222 224 225 227 228 231 233 235 238 240 242 244 247 251 253 254 256 257 259 259 260 262 265 267 270 271 271 271 272 274 275 275 276 278 279 279 278 280 283 286 289 292 295 298 302 305 307
292 290 283 276 268 260 256 245 234 228 223 222 221 219 219 217 213 213 215 218 221 220 217 218 222 224 225 227 226 227 229 227 223 221 219 220 221 221 224 226 227 229 230 231 234 237 240 242 244 247 249 251 251 250 251 252 254 255 258 261 264 267 270 272 271 271 272 273 273 270 267 267 269 271 275 280 282 283 286 291 297 303 307 309 311
292 292 287 284 278 270 269 262 243 228 219 218 220 220 220 220 219 217 215 216 222 225 221 217 220 224 225 226 225 225 228 229 226 223 221 220 221 222 224 226 228 231 233 234 236 239 242 243 245 248 248 248 248 248 249 251 253 256 258 260 263 268 272 274 275 273 270 267 266 266 266 264 261 261 270 279 281 279 282 288 296 301 304 306 308
301 295 290 287 284 278 272 267 257 237 220 216 217 220 221 221 222 221 218 216 219 224 225 220 218 221 225 227 226 225 226 228 228 226 223 223 223 224 226 228 230 232 234 237 238 240 241 241 242 244 245 246 247 249 250 253 256 258 260 262 264 267 271 275 277 273 270 274 280 285 287 286 283 276 273 277 278 276 278 285 291 294 296 299 302
298 293 290 286 285 284 276 268 261 249 231 220 218 219 220 220 220 220 219 219 218 220 224 224 221 220 223 227 228 227 224 225 227 228 226 225 225 227 229 230 231 231 233 237 239 241 241 240 239 241 243 244 246 249 252 253 254 256 260 263 263 265 268 271 273 272 275 285 293 294 291 291 292 290 284 279 277 275 278 283 287 290 293 297 301
291 287 285 282 280 280 277 270 263 255 246 233 225 221 219 220 220 219 218 220 221 221 221 222 224 223 222 224 228 229 227 224 225 226 227 227 227 228 230 231 232 231 232 235 238 241 242 241 240 240 242 244 246 249 251 251 252 254 259 262 261 263 266 269 271 274 279 284 288 291 290 290 292 290 285 282 279 278 281 285 288 290 292 295 298
289 287 284 279 277 276 274 269 263 256 250 243 233 226 223 223 222 221 221 221 221 223 221 220 224 225 224 223 225 228 229 227 225 225 226 228 229 230 231 232 233 232 233 235 238 240 242 242 241 241 243 245 248 251 254 257 258 260 262 262 261 261 264 269 275 282 286 286 287 290 290 288 286 283 280 280 281 282 283 285 287 288 291 294 296
288 288 288 284 277 272 269 267 264 258 251 245 239 233 230 228 224 223 224 223 222 223 222 221 222 224 225 224 224 227 229 229 228 227 227 228 230 232 234 235 235 236 237 238 238 240 242 243 244 244 246 247 250 254 259 263 265 265 264 264 264 264 265 271 282 289 290 289 289 290 290 286 282 281 280 278 278 280 282 283 284 286 288 291 294
291 288 289 289 282 270 264 263 264 263 258 251 244 240 236 234 230 226 225 223 222 223 224 223 223 223 223 223 224 226 228 230 230 229 229 229 230 233 235 237 238 239 240 240 240 242 243 243 245 246 249 250 252 255 260 264 266 266 266 267 267 267 267 272 283 288 288 288 287 287 287 285 282 283 282 278 276 277 279 281 282 283 285 288 291
296 290 286 286 283 271 263 263 265 265 264 259 254 247 242 238 235 233 231 228 225 224 225 226 225 224 223 223 223 225 226 229 231 231 231 231 232 234 235 237 239 241 242 243 244 244 245 245 246 247 249 251 252 255 260 262 261 261 262 264 267 269 269 270 278 285 287 288 288 285 282 280 279 278 277 276 275 275 276 277 278 279 282 285 288
294 289 283 279 275 267 263 263 264 264 265 264 261 255 249 243 239 237 236 234 231 228 226 227 226 226 225 223 223 223 224 227 230 232 232 232 233 235 237 238 240 241 243 244 245 245 245 245 245 245 247 249 251 255 258 259 261 265 267 267 268 270 269 269 276 284 284 285 286 285 283 282 281 279 278 279 279 275 274 274 276 277 280 282 285
289 285 280 274 270 264 261 262 262 262 262 265 265 259 253 247 243 239 237 236 235 232 229 227 227 227 227 226 225 224 224 225 228 231 234 234 234 235 237 239 241 242 243 244 244 245 245 245 245 244 246 248 250 254 256 258 262 269 272 269 268 270 271 274 281 283 282 283 285 286 287 288 288 287 286 286 282 277 276 277 275 275 277 279 282
289 284 278 273 269 264 262 261 261 260 259 261 262 260 258 254 249 243 240 239 238 237 234 230 227 226 226 226 227 226 226 226 227 229 232 235 236 236 236 238 240 242 244 245 246 247 247 246 246 245 246 248 249 251 254 257 260 265 268 269 271 273 276 281 284 282 283 285 286 287 288 288 289 289 286 283 279 277 279 279 276 277 279 278 279
289 284 278 272 268 265 262 261 261 261 257 252 250 253 260 264 262 253 245 241 240 240 240 236 230 226 224 225 226 228 228 228 228 229 231 233 236 237 237 237 237 239 242 244 245 247 247 247 246 246 246 248 249 249 250 253 259 264 267 269 272 275 278 280 281 280 282 283 283 285 285 286 287 286 284 284 282 281 283 281 278 279 279 276 278
291 286 281 276 271 268 265 261 260 259 254 248 245 247 253 263 269 267 258 249 243 241 242 242 237 230 225 224 225 226 227 228 229 230 231 233 235 237 239 239 238 238 239 240 242 244 245 246 246 246 246 247 248 248 247 250 255 261 264 266 268 271 274 276 278 279 280 280 281 283 285 286 285 282 282 282 282 281 280 279 278 278 275 274 279
298 295 289 283 276 272 268 263 258 254 251 248 248 250 255 260 265 269 268 261 253 245 242 242 241 235 230 226 225 225 227 229 230 232 233 235 236 237 240 241 241 239 238 237 238 241 243 244 245 246 246 247 247 247 248 249 252 255 258 261 264 267 270 273 276 278 279 279 280 281 282 283 281 280 279 279 281 280 275 271 272 273 272 272 277
306 305 298 287 279 273 269 264 258 252 251 251 252 254 256 259 262 266 267 265 262 257 248 243 240 238 234 230 227 226 227 228 230 232 234 235 235 236 237 240 242 243 242 240 237 237 240 242 244 246 247 248 248 248 249 251 252 254 258 262 264 267 270 272 273 275 276 277 278 280 280 280 279 278 277 277 278 277 270 266 268 270 268 268 272
310 310 304 292 281 274 270 263 256 252 250 252 255 257 257 259 261 263 266 266 263 262 259 251 243 239 236 232 229 227 227 228 229 230 232 233 234 235 236 238 241 244 245 244 242 239 239 241 244 245 246 246 247 248 249 251 254 257 260 264 266 268 270 271 273 274 276 277 279 281 281 282 281 279 277 276 273 269 265 267 268 266 263 267 276
311 314 311 299 282 272 268 262 256 253 252 254 257 259 259 260 261 263 266 267 266 263 259 255 249 242 237 234 231 228 227 228 228 229 230 231 233 234 236 237 239 241 242 244 244 242 240 241 242 243 244 245 246 248 249 252 255 258 260 264 268 271 272 273 274 275 276 278 280 280 280 282 283 282 279 274 268 261 256 254 253 253 261 277 291
310 314 314 304 285 269 262 259 256 252 251 254 256 258 258 258 261 264 267 268 269 266 260 255 252 247 242 236 232 230 228 228 228 229 230 230 231 233 235 238 239 240 241 242 244 244 242 240 241 242 243 245 247 249 250 252 255 258 262 266 270 272 273 273 274 276 276 276 275 276 277 279 282 284 280 272 266 260 250 245 252 278 299 309 317
305 309 309 303 287 268 259 258 256 253 253 254 254 255 256 257 260 265 267 270 271 269 261 254 250 249 248 243 237 232 230 228 228 228 229 230 231 232 234 237 238 239 241 242 242 243 242 240 240 240 240 244 247 248 249 253 257 260 264 267 270 271 273 275 275 274 275 273 270 270 275 277 278 280 272 256 253 259 279 307 330 339 339 335 327
301 303 304 301 289 273 262 260 260 260 260 259 259 260 261 262 264 266 267 270 271 269 262 254 249 250 255 253 245 237 232 230 229 229 229 230 231 232 233 236 238 240 242 242 240 238 238 240 241 240 239 240 243 244 247 252 257 260 263 266 270 274 276 277 275 270 267 265 262 261 261 249 222 214 215 217 239 272 302 337 356 355 331 305 296
299 299 300 299 291 280 269 264 264 265 266 266 268 269 269 269 269 267 267 268 269 268 265 260 256 257 262 263 254 242 236 233 233 232 231 230 231 232 232 234 236 239 240 240 239 237 236 238 242 242 237 233 236 240 247 253 256 260 265 269 273 276 277 273 269 259 248 244 242 235 218 199 197 214 223 213 207 121 78 72 299 275 280 287 292
301 299 297 295 292 284 276 270 269 270 271 272 275 276 277 276 273 271 271 269 267 266 265 262 261 262 262 261 253 242 236 236 236 235 234 233 232 232 232 234 236 239 239 237 236 237 237 237 239 239 235 232 234 238 242 248 254 260 266 272 273 273 270 257 242 231 225 227 226 213 204 203 203 196 168 130 107 89 333 286 285 288 293 300 304
306 301 296 293 289 285 280 275 273 274 276 279 285 286 284 282 280 277 275 271 268 267 264 261 261 261 259 254 246 236 233 235 237 237 236 235 233 232 232 234 235 237 237 236 237 239 239 237 236 236 236 234 235 236 234 236 244 251 254 258 258 246 226 206 195 187 174 168 175 182 184 178 164 150 136 126 136 261 295 294 295 298 302 306 307
307 302 297 292 287 284 282 278 275 277 281 288 295 295 292 289 286 282 278 274 270 267 262 257 257 256 252 245 237 230 229 232 235 235 235 236 236 235 233 233 234 235 235 235 237 238 238 237 237 237 236 230 230 235 231 218 219 220 212 206 191 174 173 167 156 149 146 153 165 174 178 181 189 198 206 216 234 258 277 283 287 293 298 303 307
306 299 293 290 286 282 281 280 280 282 287 295 299 300 299 297 291 284 281 274 266 262 257 252 250 249 243 236 231 231 231 231 232 231 230 232 235 235 234 232 231 234 236 235 235 234 234 234 231 229 230 227 224 227 222 198 189 174 151 144 139 136 142 143 143 153 170 181 190 200 211 225 236 240 247 256 264 273 278 280 285 294 301 306 308
303 295 288 284 283 281 278 279 285 291 295 298 301 303 308 310 303 297 291 273 265 270 262 247 242 246 246 241 241 242 240 236 232 231 234 237 238 237 236 232 226 227 231 230 225 221 220 219 212 212 217 213 203 200 191 171 160 148 138 139 137 136 143 153 169 191 203 206 212 223 235 242 247 251 258 265 270 276 282 288 297 306 310 310 311
299 292 284 279 281 281 277 278 287 294 295 296 301 314 328 332 324 314 302 271 259 272 260 232 231 239 247 256 268 263 250 242 234 230 236 240 230 219 214 213 211 211 211 206 198 194 197 198 199 205 205 190 174 170 163 153 147 144 145 152 159 178 200 209 212 218 224 227 231 236 240 242 243 249 258 269 279 287 294 299 304 308 310 311 313
292 287 281 278 279 278 276 277 279 280 281 291 313 333 346 355 359 2 13 96 139 113 101 108 110 103 93 80 61 50 21 235 220 206 211 234 216 188 177 175 179 184 185 186 194 204 197 183 180 181 177 169 162 155 147 143 143 146 158 182 204 217 223 224 224 227 230 232 236 239 241 246 254 262 271 282 291 297 300 302 305 308 311 313 313
Height
3192 3192 3193 3193 3194 3195 3196 3196 3197 3198 3198 3198 3199 3199 3200 3201 3202 3203 3204 3205 3206 3207 3208 3210 3211 3212 3213 3213 3214 3215 3216 3217 3217 3218 3219 3219 3220 3221 3222 3223 3224 3224 3225 3226 3227 3228 3229 3230 3231 3231 3232 3233 3234 3235 3236 3236 3237 3238 3238 3239 3239 3240 3240 3240 3241 3241 3241 3241 3242 3242 3242 3242 3241 3241 3241 3241 3240 3239 3239 3238 3237 3236 3235 3235 3234
3192 3193 3193 3194 3194 3195 3196 3197 3198 3198 3198 3199 3199 3200 3200 3201 3203 3204 3205 3206 3207 3208 3209 3210 3211 3212 3213 3213 3214 3215 3216 3217 3217 3218 3219 3219 3220 3221 3222 3223 3224 3225 3225 3226 3227 3228 3229 3230 3230 3231 3232 3233 3234 3235 3235 3236 3237 3237 3238 3238 3239 3239 3239 3240 3240 3240 3240 3241 3241 3241 3241 3241 3241 3240 3240 3240 3239 3238 3238 3237 3236 3235 3234 3233 3232
3192 3193 3193 3194 3194 3195 3196 3197 3198 3198 3198 3199 3200 3200 3201 3201 3203 3204 3205 3206 3207 3208 3209 3210 3211 3212 3212 3213 3214 3215 3215 3216 3217 3218 3219 3219 3220 3221 3222 3223 3224 3225 3225 3226 3228 3228 3229 3230 3230 3231 3232 3233 3234 3234 3235 3236 3236 3237 3238 3238 3238 3239 3239 3239 3239 3239 3240 3240 3240 3240 3240 3240 3240 3239 3239 3238 3238 3237 3236 3235 3235 3234 3234 3233 3231
3192 3193 3193 3193 3194 3195 3196 3196 3197 3198 3199 3199 3200 3201 3201 3202 3203 3204 3205 3206 3207 3208 3209 3210 3211 3211 3212 3213 3214 3214 3215 3216 3217 3218 3219 3219 3220 3221 3222 3223 3224 3225 3226 3227 3228 3228 3229 3230 3230 3231 3232 3233 3233 3234 3235 3236 3236 3237 3237 3237 3238 3238 3238 3238 3239 3239 3239 3239 3240 3240 3240 3239 3239 3239 3238 3237 3237 3236 3235 3234 3234 3234 3233 3232 3231
3191 3192 3193 3193 3194 3195 3196 3196 3197 3198 3199 3199 3200 3201 3201 3202 3203 3204 3205 3206 3207 3207 3208 3209 3210 3211 3212 3213 3214 3215 3216 3217 3217 3218 3219 3220 3221 3222 3223 3224 3225 3226 3226 3227 3228 3228 3229 3230 3231 3231 3232 3233 3233 3234 3235 3235 3236 3236 3236 3237 3237 3237 3238 3238 3238 3238 3239 3239 3239 3239 3239 3239 3238 3238 3237 3237 3236 3235 3234 3234 3234 3233 3232 3231 3230
3190 3191 3192 3193 3193 3194 3195 3196 3197 3198 3199 3199 3200 3201 3201 3202 3203 3204 3205 3206 3206 3207 3208 3209 3210 3211 3213 3214 3215 3216 3216 3217 3217 3218 3219 3220 3221 3222 3223 3224 3225 3226 3226 3227 3228 3228 3229 3230 3231 3232 3232 3233 3234 3234 3235 3235 3235 3235 3236 3236 3237 3237 3237 3238 3238 3238 3238 3238 3238 3238 3238 3238 3238 3237 3237 3236 3236 3235 3234 3234 3233 3232 3231 3230 3229
3189 3190 3191 3192 3193 3194 3195 3196 3196 3197 3198 3199 3200 3200 3201 3202 3203 3203 3204 3205 3206 3207 3208 3209 3210 3211 3212 3213 3214 3215 3216 3216 3217 3218 3218 3219 3221 3222 3223 3224 3225 3225 3226 3227 3228 3228 3229 3230 3231 3232 3233 3233 3234 3234 3234 3234 3234 3235 3235 3236 3236 3237 3237 3237 3237 3238 3238 3238 3238 3238 3237 3237 3237 3236 3236 3236 3236 3236 3234 3233 3232 3231 3230 3229 3229
3188 3189 3190 3191 3192 3193 3194 3195 3196 3196 3197 3198 3199 3200 3201 3202 3202 3203 3204 3205 3206 3207 3208 3208 3209 3210 3212 3213 3214 3214 3215 3215 3216 3217 3218 3219 3220 3222 3223 3224 3224 3225 3226 3227 3227 3228 3229 3230 3231 3232 3232 3233 3233 3233 3234 3234 3234 3235 3235 3235 3236 3236 3236 3237 3237 3237 3237 3237 3237 3237 3237 3236 3236 3235 3235 3236 3236 3236 3235 3234 3232 3231 3230 3228 3228
3186 3188 3189 3191 3192 3193 3194 3195 3195 3195 3196 3197 3198 3199 3200 3201 3202 3203 3203 3204 3205 3206 3207 3208 3209 3210 3211 3212 3213 3213 3214 3215 3216 3217 3218 3219 3220 3221 3222 3223 3224 3225 3225 3226 3227 3228 3229 3230 3230 3231 3232 3232 3232 3233 3233 3234 3234 3234 3235 3235 3235 3236 3236 3236 3236 3236 3236 3236 3236 3236 3236 3236 3235 3235 3235 3235 3235 3235 3234 3233 3233 3232 3230 3228 3227
3184 3186 3187 3189 3191 3192 3193 3193 3194 3195 3195 3196 3197 3198 3199 3200 3201 3202 3203 3204 3205 3206 3207 3208 3209 3209 3210 3211 3212 3213 3214 3215 3216 3217 3218 3218 3219 3220 3221 3222 3223 3224 3225 3226 3227 3228 3228 3229 3230 3230 3231 3231 3232 3232 3233 3233 3234 3234 3235 3235 3235 3235 3235 3235 3235 3235 3235 3235 3235 3235 3235 3235 3235 3235 3234 3234 3234 3233 3233 3232 3232 3231 3230 3229 3227
3181 3184 3185 3187 3189 3190 3191 3192 3193 3194 3194 3195 3196 3197 3198 3199 3201 3202 3203 3203 3204 3205 3206 3207 3208 3209 3209 3210 3211 3212 3213 3214 3215 3216 3217 3218 3219 3219 3220 3221 3222 3223 3224 3225 3226 3227 3228 3229 3229 3230 3230 3231 3231 3232 3232 3233 3233 3234 3234 3234 3234 3234 3234 3235 3235 3235 3235 3235 3235 3235 3235 3235 3234 3234 3234 3233 3233 3232 3232 3231 3231 3230 3230 3228 3227
3179 3181 3183 3185 3187 3188 3190 3191 3192 3193 3193 3194 3195 3196 3198 3199 3200 3201 3202 3203 3203 3204 3205 3206 3207 3208 3209 3210 3211 3212 3213 3214 3215 3215 3216 3217 3217 3218 3219 3220 3222 3223 3224 3225 3225 3226 3227 3228 3228 3229 3230 3230 3231 3231 3232 3232 3233 3233 3234 3234 3234 3234 3234 3234 3234 3234 3234 3234 3234 3234 3234 3234 3234 3233 3233 3232 3232 3231 3231 3230 3230 3229 3229 3228 3226
3176 3178 3181 3183 3185 3187 3188 3190 3191 3192 3193 3194 3194 3195 3197 3198 3199 3200 3201 3202 3203 3204 3205 3206 3207 3208 3209 3209 3210 3211 3212 3213 3214 3215 3215 3216 3216 3217 3218 3220 3221 3222 3223 3224 3225 3225 3226 3227 3228 3228 3229 3230 3230 3231 3232 3232 3233 3233 3233 3233 3234 3234 3234 3234 3234 3234 3234 3234 3234 3234 3233 3233 3233 3232 3232 3231 3231 3230 3230 3229 3229 3228 3228 3227 3226
3174 3176 3178 3180 3182 3185 3187 3188 3190 3191 3192 3193 3193 3194 3195 3196 3198 3199 3200 3201 3202 3203 3204 3205 3206 3207 3208 3209 3209 3210 3212 3213 3213 3214 3215 3215 3216 3217 3218 3219 3220 3221 3222 3223 3224 3224 3225 3226 3227 3228 3228 3229 3230 3230 3231 3232 3232 3233 3233 3233 3233 3233 3233 3233 3233 3233 3233 3233 3233 3233 3232 3232 3231 3231 3231 3230 3230 3229 3229 3228 3228 3227 3227 3226 3225
3173 3174 3175 3177 3180 3182 3184 3186 3188 3189 3191 3192 3192 3193 3194 3195 3196 3198 3199 3200 3201 3202 3203 3204 3205 3206 3207 3208 3209 3210 3211 3212 3212 3213 3214 3215 3216 3217 3217 3218 3219 3220 3221 3222 3223 3224 3225 3226 3226 3227 3228 3229 3229 3230 3230 3231 3231 3232 3232 3232 3232 3232 3232 3232 3232 3232 3232 3232 3231 3231 3231 3231 3230 3230 3230 3229 3229 3228 3228 3227 3226 3226 3226 3225 3224
3172 3172 3173 3175 3177 3179 3182 3184 3186 3188 3189 3190 3191 3192 3193 3194 3195 3196 3198 3199 3200 3201 3202 3203 3204 3205 3206 3207 3208 3209 3210 3211 3211 3212 3213 3214 3215 3216 3217 3217 3218 3219 3220 3221 3222 3223 3224 3225 3226 3227 3227 3228 3228 3229 3229 3230 3230 3230 3230 3230 3230 3230 3230 3230 3230 3230 3230 3230 3230 3230 3229 3229 3229 3229 3228 3228 3227 3227 3227 3226 3225 3225 3224 3224 3223
3170 3170 3172 3173 3175 3176 3179 3181 3182 3184 3186 3188 3189 3191 3192 3193 3194 3195 3196 3197 3199 3200 3201 3202 3203 3204 3206 3207 3207 3208 3209 3210 3211 3211 3212 3213 3214 3215 3216 3217 3218 3219 3219 3220 3221 3222 3223 3224 3225 3226 3226 3227 3227 3227 3228 3228 3228 3228 3229 3229 3229 3229 3229 3229 3229 3229 3229 3229 3228 3228 3228 3228 3228 3227 3227 3226 3226 3226 3225 3225 3224 3224 3223 3222 3222
3169 3169 3170 3171 3172 3174 3175 3177 3179 3181 3184 3186 3187 3188 3189 3191 3192 3193 3194 3195 3197 3199 3200 3201 3202 3203 3204 3205 3206 3207 3208 3209 3210 3210 3211 3212 3213 3214 3215 3216 3217 3218 3219 3220 3220 3221 3222 3223 3224 3224 3225 3225 3225 3226 3226 3226 3227 3227 3228 3228 3228 3228 3228 3228 3228 3227 3227 3227 3227 3227 3227 3227 3226 3226 3226 3225 3225 3224 3224 3223 3223 3222 3222 3221 3220
3167 3168 3168 3169 3171 3172 3173 3175 3178 3180 3182 3185 3186 3186 3187 3188 3189 3191 3192 3194 3195 3196 3198 3199 3200 3201 3203 3204 3205 3206 3207 3208 3208 3209 3210 3211 3212 3213 3214 3215 3216 3217 3218 3219 3219 3220 3221 3222 3222 3223 3223 3223 3224 3224 3225 3225 3226 3226 3227 3227 3227 3227 3227 3227 3226 3226 3226 3226 3226 3226 3225 3225 3225 3224 3224 3224 3223 3223 3222 3222 3221 3220 3220 3219 3218
3166 3167 3167 3168 3169 3170 3172 3174 3176 3178 3180 3182 3184 3185 3186 3186 3187 3188 3190 3191 3193 3194 3195 3197 3198 3200 3201 3202 3203 3204 3205 3206 3207 3208 3209 3210 3211 3212 3213 3214 3215 3215 3216 3217 3218 3219 3220 3220 3221 3221 3221 3222 3223 3224 3224 3225 3225 3225 3225 3225 3225 3225 3225 3225 3224 3224 3224 3224 3224 3224 3224 3223 3223 3223 3223 3222 3222 3221 3221 3220 3219 3219 3218 3217 3217
3165 3165 3166 3166 3167 3168 3169 3171 3172 3175 3177 3179 3180 3182 3183 3184 3185 3187 3188 3189 3190 3192 3193 3195 3196 3198 3199 3200 3202 3203 3204 3205 3206 3207 3208 3209 3210 3211 3212 3213 3213 3214 3215 3216 3217 3218 3218 3219 3219 3220 3220 3221 3222 3223 3223 3223 3224 3224 3224 3223 3223 3223 3223 3223 3223 3222 3222 3222 3222 3222 3222 3222 3222 3222 3221 3221 3220 3220 3219 3219 3218 3217 3216 3216 3216
3164 3164 3164 3165 3165 3166 3167 3168 3169 3171 3173 3175 3177 3179 3180 3182 3184 3185 3186 3187 3188 3189 3190 3192 3194 3196 3197 3199 3200 3201 3202 3203 3204 3205 3206 3207 3208 3209 3210 3211 3212 3213 3214 3215 3216 3216 3217 3217 3218 3219 3219 3220 3221 3221 3221 3221 3221 3221 3221 3221 3221 3221 3221 3221 3221 3221 3221 3220 3220 3220 3220 3220 3221 3221 3220 3220 3219 3219 3218 3217 3217 3216 3215 3215 3214
3163 3163 3163 3163 3164 3164 3165 3165 3166 3167 3169 3171 3174 3176 3178 3180 3181 3182 3184 3186 3187 3187 3188 3190 3191 3193 3195 3196 3198 3199 3200 3201 3202 3203 3204 3206 3207 3208 3209 3210 3211 3212 3212 3213 3214 3215 3215 3216 3217 3218 3218 3219 3219 3219 3219 3219 3219 3219 3219 3219 3219 3219 3219 3219 3219 3219 3219 3219 3218 3218 3218 3218 3218 3218 3219 3218 3218 3217 3217 3216 3215 3214 3214 3213 3213
3162 3162 3162 3162 3162 3162 3163 3163 3163 3164 3166 3167 3170 3173 3175 3177 3179 3180 3182 3183 3185 3186 3186 3187 3189 3191 3192 3194 3195 3196 3198 3199 3200 3201 3203 3204 3205 3206 3207 3208 3209 3210 3211 3211 3212 3213 3214 3215 3215 3216 3217 3217 3217 3217 3217 3217 3217 3217 3217 3217 3217 3218 3218 3218 3218 3217 3216 3215 3215 3215 3215 3215 3215 3215 3216 3217 3216 3216 3215 3215 3214 3213 3213 3212 3211
3161 3160 3160 3160 3160 3161 3161 3162 3162 3162 3163 3164 3166 3168 3171 3173 3176 3178 3179 3181 3182 3183 3184 3185 3186 3188 3190 3191 3193 3194 3195 3197 3198 3199 3201 3202 3203 3204 3205 3206 3207 3208 3209 3210 3210 3211 3212 3213 3214 3214 3214 3215 3215 3215 3215 3215 3215 3215 3215 3215 3216 3216 3216 3216 3216 3214 3213 3214 3215 3216 3216 3215 3215 3214 3214 3215 3215 3214 3213 3213 3213 3212 3211 3211 3210
3159 3159 3159 3159 3159 3159 3160 3160 3160 3161 3161 3162 3163 3164 3166 3169 3171 3174 3176 3178 3179 3180 3181 3183 3184 3185 3187 3189 3190 3192 3193 3195 3196 3198 3199 3200 3201 3202 3203 3204 3205 3206 3207 3207 3208 3209 3210 3211 3211 3212 3212 3213 3213 3213 3213 3213 3212 3212 3213 3213 3213 3214 3214 3214 3213 3211 3212 3215 3216 3215 3215 3215 3215 3215 3214 3213 3213 3213 3212 3212 3211 3210 3210 3209 3209
3158 3158 3158 3158 3158 3158 3158 3158 3159 3159 3160 3160 3161 3162 3164 3166 3168 3170 3172 3174 3175 3176 3178 3180 3181 3183 3184 3186 3188 3189 3191 3192 3194 3195 3197 3198 3199 3200 3201 3202 3203 3204 3204 3205 3206 3207 3208 3208 3209 3209 3210 3210 3211 3211 3210 3209 3210 3211 3211 3211 3211 3211 3211 3211 3210 3210 3212 3214 3213 3213 3213 3213 3213 3214 3213 3213 3212 3211 3211 3211 3210 3209 3209 3208 3207
3157 3156 3156 3156 3156 3156 3156 3156 3157 3157 3158 3159 3159 3160 3162 3163 3166 3168 3169 3170 3171 3172 3174 3176 3178 3179 3181 3183 3185 3187 3188 3190 3191 3192 3194 3195 3197 3198 3199 3200 3200 3201 3202 3203 3203 3204 3205 3206 3206 3207 3208 3208 3208 3208 3208 3208 3210 3210 3209 3209 3209 3209 3209 3209 3209 3210 3211 3211 3211 3211 3211 3210 3210 3211 3211 3211 3210 3210 3210 3209 3208 3208 3207 3206 3205
3156 3155 3155 3154 3154 3154 3154 3154 3155 3155 3156 3157 3158 3158 3159 3161 3163 3165 3166 3168 3169 3169 3171 3172 3174 3176 3178 3180 3182 3184 3185 3187 3188 3189 3191 3192 3194 3195 3196 3197 3198 3199 3199 3200 3201 3202 3202 3203 3204 3205 3205 3205 3206 3206 3206 3207 3208 3208 3208 3208 3208 3207 3207 3208 3208 3209 3210 3209 3209 3209 3208 3208 3208 3208 3208 3208 3207 3208 3208 3207 3206 3206 3205 3204 3204
3154 3153 3153 3152 3152 3152 3152 3152 3153 3153 3154 3154 3155 3156 3157 3158 3160 3161 3163 3164 3165 3166 3167 3168 3170 3172 3174 3176 3179 3180 3182 3184 3185 3186 3188 3189 3191 3192 3193 3194 3195 3196 3196 3197 3198 3199 3200 3201 3201 3202 3202 3203 3203 3203 3204 3205 3206 3206 3207 3207 3206 3206 3206 3206 3207 3208 3207 3207 3207 3206 3206 3206 3206 3206 3206 3205 3205 3205 3205 3205 3204 3203 3202 3202 3201
3152 3152 3151 3151 3150 3150 3150 3150 3151 3151 3152 3152 3153 3154 3154 3155 3157 3158 3159 3160 3161 3162 3164 3165 3167 3169 3170 3172 3174 3176 3178 3180 3182 3183 3185 3186 3188 3189 3190 3191 3192 3193 3194 3194 3195 3196 3197 3198 3199 3199 3200 3200 3200 3201 3202 3203 3203 3203 3204 3204 3204 3205 3205 3205 3205 3205 3205 3205 3205 3204 3204 3204 3203 3203 3203 3202 3202 3202 3202 3201 3201 3200 3200 3199 3199
3150 3150 3149 3149 3149 3148 3148 3149 3149 3149 3150 3150 3150 3151 3151 3152 3153 3154 3155 3156 3157 3158 3160 3161 3163 3165 3167 3168 3170 3172 3174 3176 3178 3180 3182 3183 3184 3185 3187 3188 3189 3190 3191 3192 3192 3193 3194 3195 3196 3197 3197 3197 3198 3198 3199 3200 3200 3200 3201 3202 3202 3203 3204 3203 3203 3203 3203 3203 3202 3202 3202 3201 3201 3200 3200 3200 3201 3200 3199 3198 3198 3197 3197 3196 3196
3148 3148 3147 3147 3146 3146 3146 3146 3147 3147 3148 3148 3148 3148 3148 3149 3149 3150 3151 3152 3153 3155 3156 3158 3159 3161 3162 3164 3166 3167 3169 3172 3174 3176 3178 3180 3181 3182 3183 3185 3186 3187 3188 3188 3189 3190 3191 3192 3193 3193 3194 3194 3195 3196 3196 3197 3198 3198 3199 3200 3200 3201 3201 3201 3200 3200 3200 3201 3200 3199 3199 3199 3199 3198 3198 3198 3197 3196 3195 3196 3195 3195 3194 3194 3193
3146 3146 3145 3145 3144 3144 3144 3144 3144 3145 3145 3145 3146 3146 3146 3146 3146 3146 3147 3148 3149 3151 3152 3154 3155 3157 3158 3160 3162 3163 3165 3168 3170 3172 3174 3176 3177 3179 3180 3181 3182 3183 3184 3185 3186 3187 3188 3189 3190 3190 3191 3192 3193 3194 3194 3194 3195 3197 3197 3198 3198 3198 3198 3197 3197 3197 3198 3198 3197 3197 3196 3196 3196 3195 3195 3195 3193 3192 3193 3194 3193 3193 3192 3191 3191
3144 3143 3142 3142 3142 3141 3141 3141 3142 3142 3143 3143 3143 3144 3144 3144 3144 3144 3144 3145 3146 3147 3148 3149 3151 3152 3154 3156 3158 3160 3162 3164 3166 3167 3169 3171 3173 3175 3176 3177 3178 3179 3181 3182 3183 3184 3185 3186 3187 3188 3189 3190 3191 3192 3192 3192 3192 3193 3194 3195 3195 3195 3194 3194 3194 3195 3195 3195 3194 3194 3193 3193 3193 3193 3192 3192 3191 3190 3190 3190 3190 3190 3190 3189 3188
3141 3141 3140 3139 3139 3139 3139 3139 3139 3140 3141 3141 3141 3142 3142 3142 3142 3141 3141 3142 3142 3143 3144 3145 3147 3148 3150 3152 3153 3155 3157 3159 3161 3163 3165 3167 3169 3171 3173 3174 3175 3176 3177 3178 3180 3181 3182 3183 3184 3185 3186 3187 3188 3189 3190 3190 3190 3190 3190 3191 3191 3191 3191 3192 3192 3192 3191 3191 3191 3191 3190 3190 3190 3189 3188 3188 3188 3187 3187 3186 3187 3187 3186 3185 3185
3139 3138 3137 3137 3136 3136 3136 3136 3137 3137 3138 3138 3139 3139 3139 3140 3140 3139 3139 3139 3139 3139 3140 3141 3142 3143 3145 3147 3149 3151 3153 3155 3157 3159 3161 3163 3166 3168 3170 3171 3172 3173 3173 3174 3175 3177 3178 3180 3181 3182 3183 3184 3186 3187 3187 3188 3188 3187 3187 3188 3188 3188 3188 3189 3188 3188 3187 3187 3187 3188 3187 3186 3185 3185 3185 3184 3183 3183 3183 3183 3183 3182 3182 3182 3182
3136 3136 3135 3134 3134 3133 3133 3134 3134 3135 3135 3136 3136 3137 3137 3137 3137 3137 3136 3136 3136 3136 3136 3136 3137 3139 3140 3143 3145 3147 3149 3151 3152 3155 3157 3160 3162 3163 3165 3166 3168 3169 3170 3171 3172 3173 3175 3176 3178 3179 3180 3181 3182 3183 3184 3185 3185 3185 3185 3185 3185 3185 3185 3185 3185 3184 3183 3183 3184 3184 3183 3181 3181 3181 3181 3180 3180 3179 3179 3179 3179 3179 3179 3179 3179
3134 3133 3132 3132 3131 3131 3131 3131 3131 3132 3133 3133 3134 3134 3134 3134 3134 3133 3133 3133 3133 3133 3133 3133 3133 3134 3136 3138 3140 3142 3144 3146 3149 3151 3153 3155 3157 3158 3160 3162 3163 3165 3167 3168 3169 3170 3171 3173 3174 3175 3176 3177 3179 3180 3180 3181 3182 3182 3182 3182 3182 3182 3181 3181 3181 3180 3180 3179 3179 3179 3178 3177 3176 3176 3176 3176 3176 3175 3175 3175 3176 3176 3176 3176 3176
3132 3131 3130 3129 3129 3128 3128 3128 3129 3129 3129 3130 3130 3131 3131 3131 3130 3130 3129 3129 3130 3130 3130 3130 3130 3130 3131 3133 3134 3137 3139 3142 3144 3147 3148 3150 3152 3154 3156 3157 3158 3160 3162 3164 3166 3167 3168 3169 3171 3171 3172 3173 3174 3175 3176 3177 3178 3178 3178 3178 3178 3178 3178 3178 3177 3176 3175 3175 3174 3174 3174 3173 3172 3171 3172 3172 3171 3171 3171 3172 3172 3173 3173 3174 3173
3130 3129 3128 3127 3127 3126 3126 3126 3126 3126 3127 3127 3127 3127 3127 3127 3127 3126 3126 3126 3126 3126 3126 3126 3126 3127 3127 3128 3129 3132 3134 3137 3139 3141 3143 3144 3146 3149 3151 3152 3154 3156 3158 3160 3162 3163 3165 3166 3167 3167 3169 3170 3171 3172 3173 3174 3174 3174 3175 3174 3174 3174 3174 3174 3174 3173 3171 3170 3170 3169 3169 3169 3169 3168 3169 3169 3169 3169 3170 3170 3170 3171 3171 3172 3172
3128 3127 3126 3125 3125 3124 3124 3123 3123 3124 3124 3124 3124 3124 3124 3124 3123 3123 3122 3122 3122 3122 3122 3122 3122 3123 3123 3124 3125 3127 3129 3131 3133 3135 3137 3139 3141 3144 3146 3148 3149 3152 3154 3156 3158 3159 3161 3162 3163 3164 3166 3167 3168 3169 3170 3170 3171 3170 3170 3171 3170 3170 3170 3170 3170 3169 3168 3167 3166 3166 3166 3166 3166 3166 3166 3167 3168 3169 3170 3170 3170 3170 3171 3171 3171
3126 3125 3124 3123 3122 3122 3121 3121 3121 3121 3121 3121 3121 3121 3121 3120 3120 3119 3119 3118 3118 3118 3118 3118 3118 3118 3119 3120 3121 3122 3124 3126 3127 3129 3131 3134 3136 3139 3141 3143 3145 3147 3150 3152 3153 3155 3156 3157 3158 3160 3163 3164 3165 3165 3166 3167 3167 3166 3166 3167 3167 3167 3167 3166 3166 3165 3165 3164 3164 3164 3164 3164 3164 3164 3165 3166 3166 3167 3168 3169 3169 3170 3170 3171 3171
3123 3122 3122 3121 3120 3120 3119 3119 3119 3119 3118 3118 3118 3118 3118 3117 3116 3116 3115 3115 3114 3114 3113 3113 3114 3114 3114 3115 3116 3117 3118 3120 3122 3124 3127 3129 3131 3134 3136 3138 3141 3143 3145 3147 3149 3150 3151 3153 3155 3157 3160 3161 3162 3162 3163 3163 3162 3162 3162 3163 3163 3163 3163 3162 3162 3162 3162 3162 3162 3162 3162 3162 3163 3163 3164 3165 3165 3166 3167 3168 3169 3169 3169 3169 3169
3121 3120 3120 3119 3119 3118 3117 3117 3117 3116 3116 3116 3115 3115 3115 3114 3113 3112 3111 3111 3110 3110 3109 3109 3109 3109 3109 3110 3110 3110 3112 3114 3116 3119 3123 3125 3127 3129 3131 3134 3136 3138 3140 3142 3145 3146 3147 3149 3151 3154 3156 3157 3158 3159 3159 3159 3158 3158 3158 3159 3159 3160 3160 3160 3160 3160 3161 3161 3161 3161 3161 3162 3162 3162 3163 3164 3165 3165 3166 3167 3167 3168 3168 3168 3168
3119 3119 3118 3117 3117 3116 3116 3115 3115 3114 3114 3113 3113 3112 3112 3111 3110 3109 3107 3107 3106 3105 3105 3105 3104 3104 3104 3104 3104 3105 3106 3109 3111 3115 3118 3120 3122 3124 3127 3129 3132 3133 3135 3138 3140 3142 3143 3144 3146 3149 3151 3153 3154 3155 3154 3154 3154 3155 3155 3156 3157 3157 3158 3158 3159 3159 3159 3160 3160 3161 3161 3161 3161 3161 3162 3163 3164 3165 3165 3166 3166 3166 3166 3166 3166
3117 3117 3116 3115 3115 3115 3114 3113 3113 3112 3112 3112 3111 3110 3109 3108 3107 3106 3104 3103 3102 3102 3102 3101 3101 3100 3100 3100 3101 3101 3102 3104 3107 3110 3112 3114 3116 3118 3120 3123 3126 3128 3129 3132 3135 3138 3141 3143 3144 3145 3145 3147 3148 3150 3150 3150 3151 3152 3153 3154 3155 3156 3157 3158 3158 3159 3159 3160 3161 3161 3161 3161 3161 3161 3161 3162 3163 3163 3164 3164 3164 3165 3164 3164 3164
3115 3114 3114 3113 3113 3113 3112 3111 3111 3111 3111 3110 3109 3108 3107 3106 3105 3104 3102 3101 3100 3099 3099 3098 3098 3098 3097 3097 3098 3098 3099 3100 3103 3106 3108 3110 3111 3112 3114 3118 3122 3125 3126 3128 3131 3133 3137 3139 3140 3140 3141 3143 3144 3146 3148 3149 3149 3150 3152 3153 3155 3157 3157 3158 3158 3159 3160 3160 3161 3161 3161 3161 3161 3161 3161 3161 3162 3162 3162 3163 3163 3163 3162 3162 3161
3113 3112 3111 3111 3111 3111 3110 3109 3109 3109 3109 3108 3108 3107 3106 3105 3103 3102 3100 3099 3098 3097 3096 3096 3096 3095 3095 3095 3095 3096 3097 3098 3100 3103 3105 3107 3107 3109 3112 3117 3120 3122 3124 3126 3127 3128 3131 3133 3134 3136 3139 3141 3143 3144 3147 3148 3148 3150 3151 3153 3155 3157 3158 3158 3158 3159 3159 3160 3160 3160 3160 3160 3161 3161 3161 3161 3161 3161 3161 3161 3160 3160 3160 3160 3159
3110 3110 3109 3109 3109 3108 3108 3108 3108 3108 3107 3107 3107 3106 3105 3104 3102 3101 3099 3098 3096 3095 3094 3094 3093 3093 3093 3094 3094 3093 3094 3096 3099 3101 3104 3105 3104 3104 3107 3111 3115 3117 3120 3122 3123 3124 3126 3129 3131 3134 3137 3139 3141 3143 3145 3146 3147 3149 3151 3153 3155 3157 3157 3158 3158 3158 3158 3159 3159 3159 3159 3160 3160 3160 3160 3159 3159 3159 3159 3159 3158 3158 3158 3157 3156
3108 3107 3107 3107 3107 3106 3106 3106 3107 3107 3107 3107 3106 3105 3105 3104 3102 3100 3098 3097 3096 3095 3093 3093 3093 3092 3093 3093 3093 3093 3094 3096 3099 3101 3103 3106 3106 3104 3103 3106 3111 3115 3117 3118 3121 3123 3125 3128 3130 3132 3134 3136 3139 3141 3143 3145 3148 3150 3152 3153 3155 3155 3156 3156 3156 3156 3157 3157 3157 3158 3158 3158 3158 3158 3158 3158 3158 3158 3157 3157 3157 3156 3155 3154 3153